User: anonymous   Login
Location: Chillicothe
(39.7950°N, 93.5520°W)
Time: 03:24:48
(UTC-05:00)
Language:

deb Explorer IX - Orbit

View from above orbital plane
View from above orbital plane
View from above satellite
View from above satellite

Ground track
Ground track

The orbit data is extracted from the following two-line orbital elements,

1    85U 61004C   19287.13773497 -.00000132  00000-0 -82917-5 0  9992
2    85  38.7720 201.7875 0390718 291.8658  64.0975 14.19880906895907
Epoch (UTC): 14 October 2019 03:18:20
Eccentricity: 0.0390718
inclination: 38.7720°
perigee height: 544 km
apogee height: 1107 km
right ascension of ascending node: 201.7875°
argument of perigee: 291.8658°
revolutions per day: 14.19880906
mean anomaly at epoch: 64.0975°
orbit number at epoch: 89590

The dashed part of the orbit path shows where the satellite is in the earth's shadow,  

DLR